Home > Weather > Portland > Past weeks

Flag for USA Past Weather in Portland, Maine, USA — Yesterday and Last 2 Weeks

Now
76 °F

Scattered clouds.


Feels Like: 77 °F
Forecast: 67 / 76 °F
Wind: 6 mph from East

Location: Portland - Portland International Jetport

Current Time: Jul 29, 2016 at 7:54:59 PM

Latest Report: Jul 29, 2016 at 6:51 PM


Visibility: 10 mi

Pressure: 29.87 "Hg

Humidity: 74%

Dew Point: 67 °F

Location of PortlandLocation

Past Weather in Portland — Graph

°F

Portland Temperature Yesterday

Maximum temperature yesterday: 86 °F (at 11:51 AM)
Minimum temperature yesterday: 64 °F (at 4:51 AM)
Average temperature yesterday: 76 °F

High & Low Weather Summary for the Past Weeks

 TemperatureHumidityPressure
High94 °F (Jul 22, 2:51 PM)100% (Jul 18, 5:51 AM)30.15 "Hg (Jul 18, 5:51 AM)
Low56 °F (Jul 20, 3:51 AM)33% (Jul 22, 4:51 PM)29.66 "Hg (Jul 22, 5:51 PM)
Average74 °F68%29.90 "Hg
* Reported Jul 14 5:51 PM — Jul 29 5:51 PM, Portland, Weather by CustomWeather, © 2016

Note: Actual official high and low records may vary slightly from our data, if they occured in-between our weather recording intervals... More about our weather records

Advertising

Portland Weather History for the Previous 24 Hours

Scroll right to see more
 ConditionsComfort  
Time TempWeatherWind HumidityBarometerVisibility
5:51 PM
Fri, Jul 29
77 °FScattered clouds.7 mph69%29.86 "Hg10 mi
4:51 PM79 °FScattered clouds.6 mph65%29.85 "Hg10 mi
3:51 PM80 °FScattered clouds.8 mph64%29.84 "Hg10 mi
2:51 PM80 °FBroken clouds.9 mph64%29.85 "Hg10 mi
1:51 PM78 °FMore clouds than sun.8 mph66%29.88 "Hg10 mi
12:51 PM78 °FMore clouds than sun.6 mph69%29.89 "Hg10 mi
11:51 AM78 °FMostly cloudy.7 mph69%29.88 "Hg10 mi
10:51 AM77 °FMore clouds than sun.6 mph69%29.89 "Hg10 mi
9:51 AM74 °FMore clouds than sun.6 mph79%29.89 "Hg10 mi
8:51 AM73 °FMore clouds than sun.5 mph79%29.89 "Hg10 mi
7:51 AM72 °FMore clouds than sun.3 mph81%29.88 "Hg10 mi
6:51 AM70 °FCloudy.3 mph87%29.88 "Hg10 mi
5:51 AM69 °FMostly cloudy.3 mph87%29.86 "Hg10 mi
4:51 AM69 °FOvercast.No wind87%29.86 "Hg10 mi
3:51 AM70 °FClear.5 mph87%29.86 "Hg10 mi
2:51 AM70 °FClear.5 mph84%29.86 "Hg10 mi
1:51 AM70 °FClear.5 mph84%29.87 "Hg10 mi
12:51 AM71 °FClear.No wind81%29.87 "Hg10 mi
11:51 PM
Thu, Jul 28
72 °FClear.No wind78%29.88 "Hg10 mi
10:51 PM74 °FPassing clouds.No wind74%29.88 "Hg10 mi
9:51 PM75 °FPassing clouds.5 mph71%29.87 "Hg10 mi
8:51 PM75 °FPartly sunny.7 mph69%29.87 "Hg10 mi
7:51 PM79 °FThundershowers. Broken clouds.6 mph62%29.87 "Hg10 mi
Weather by CustomWeather, © 2016

See weather overviewHow to use our weather pages